Tracking 20083 objects as of 9-Dec-2019
HD Live streaming from Space Station
objects crossing your sky now

FENGYUN 1C DEB

Track FENGYUN 1C DEB now!
10-day predictions


NORAD ID: 33713
Int'l Code: 1999-025DHA
Perigee: 552.6 km
Apogee: 794.0 km
Inclination: 99.0 °
Period: 98.1 minutes
Semi major axis: 7044 km
RCS: 0.0118 m2 (small)
Launch date: May 10, 1999
Source: People's Republic of China (PRC)
Launch site: Taiyaun Space Center, China (TSC)

Note: This is SATELLITE DEBRIS
aabbcc
Your satellite tracking list
Your tracking list is empty




NASA's NSSDC Master Catalog

Two Line Element Set (TLE):
1 33713U 99025DHA 19342.52434272 +.00000854 +00000-0 +12819-3 0  9991
2 33713 099.0427 082.7714 0171327 185.7472 174.1768 14.68395604629348
Source of the keplerian elements: AFSPC